Weather History for De Queen, AR

Change the Weather History Date:

Monday, December 31, 2012

  Actual Average Record
Temperature  
Mean Temperature 39 °F 42 °F  
Max Temperature 41 °F 53 °F 82 °F (1951)
Min Temperature 37 °F 30 °F 6 °F (1983)
Degree Days  
Heating Degree Days 26 23  
Month to date heating degree days 568 682  
Since 1 July heating degree days 1125 1209  
Cooling Degree Days 0 0  
Month to date cooling degree days 14 0  
Year to date cooling degree days 2185 1941  
Moisture  
Dew Point 37 °F    
Average Humidity 85    
Maximum Humidity 100    
Minimum Humidity 70    
Precipitation  
Precipitation 0.24 in 0.19 in 1.98 in (1978)
Month to date precipitation 3.83 4.36  
Year to date precipitation 28.52 48.99  
Snow  
Snow 0.00 in - - ()
Month to date snowfall 4.5  
Since 1 July snowfall 4.5  
Snow Depth 0.00 in    
Sea Level Pressure  
Sea Level Pressure 30.08 in    
Wind  
Wind Speed 4 mph (ENE)    
Max Wind Speed 12 mph    
Max Gust Speed 17 mph    
Visibility 4 miles    
Events Fog , Rain    
T = Trace of Precipitation, MM = Missing Value Source: NWS Daily Summary

Daily Weather History Graph

Daily Weather History Graph

Search for Another Location

Airport:

Trip Planner

Search our weather history database for the weather conditions in past years. The results will help you decide how hot, cold, wet, or windy it might be!

Date:

Astronomy

Dec. 31, 2012 Rise Set
Actual Time 7:23 AM CST 5:18 PM CST
Civil Twilight 6:55 AM CST 5:46 PM CST
Nautical Twilight 6:24 AM CST 6:17 PM CST
Astronomical Twilight 5:53 AM CST 6:48 PM CST
Moon 8:40 PM CST (12/31) 9:13 AM CST (12/31)
Length of Visible Light 10h 51m
Length of Day
9h 55m
Waning Gibbous, 90% of the Moon is Illuminated
Dec 31
Waning Gibbous
Jan 4
Last Quarter
Jan 11
New
Jan 18
First Quarter
Jan 26
Full

Hourly Weather History & Observations

Time (CST) Temp. Windchill Dew Point Humidity Pressure Visibility Wind Dir Wind Speed Gust Speed Precip Events Conditions
12:53 AM 37.9 °F - 33.1 °F 83% 30.27 in 10.0 mi Calm Calm - N/A   Overcast
1:53 AM 37.9 °F 35.5 °F 32.0 °F 79% 30.27 in 10.0 mi NE 3.5 mph - N/A   Overcast
2:53 AM 37.9 °F 35.5 °F 32.0 °F 79% 30.25 in 10.0 mi NE 3.5 mph - N/A   Mostly Cloudy
3:53 AM 37.9 °F 34.4 °F 30.9 °F 76% 30.24 in 10.0 mi ENE 4.6 mph - N/A   Overcast
4:53 AM 39.0 °F 34.8 °F 30.9 °F 73% 30.22 in 10.0 mi ENE 5.8 mph - N/A   Overcast
5:53 AM 39.0 °F 34.0 °F 30.0 °F 70% 30.21 in 10.0 mi East 6.9 mph - 0.00 in   Overcast
6:53 AM 39.0 °F 32.8 °F 30.0 °F 70% 30.16 in 10.0 mi East 9.2 mph - N/A   Overcast
7:53 AM 39.0 °F 33.4 °F 30.0 °F 70% 30.15 in 10.0 mi East 8.1 mph - N/A   Overcast
8:53 AM 39.0 °F 36.8 °F 32.0 °F 76% 30.16 in 6.0 mi ENE 3.5 mph - 0.00 in Rain Light Rain
9:15 AM 37.9 °F 34.4 °F 34.0 °F 86% 30.17 in 2.5 mi NNE 4.6 mph - 0.02 in Rain Rain
9:27 AM 37.9 °F 33.5 °F 34.0 °F 86% 30.17 in 2.0 mi NE 5.8 mph - 0.03 in Rain Light Rain
9:53 AM 37.0 °F 32.4 °F 35.1 °F 93% 30.17 in 1.8 mi ENE 5.8 mph - 0.05 in Rain Rain
10:23 AM 37.9 °F 32.7 °F 35.1 °F 89% 30.14 in 2.5 mi East 6.9 mph - 0.01 in Rain Light Rain
10:39 AM 37.9 °F 30.9 °F 35.1 °F 89% 30.12 in 1.8 mi East 10.4 mph - 0.02 in Rain Rain
10:53 AM 37.9 °F 32.7 °F 35.1 °F 89% 30.12 in 1.8 mi East 6.9 mph - 0.03 in Rain Rain
11:34 AM 37.9 °F 31.5 °F 36.0 °F 93% 30.08 in 2.0 mi East 9.2 mph - 0.03 in Rain Light Rain
11:50 AM 37.4 °F 31.4 °F 35.6 °F 93% 30.07 in 2.0 mi East 8.1 mph - 0.03 in Rain Light Rain
11:53 AM 37.9 °F 32.7 °F 36.0 °F 93% 30.07 in 2.0 mi ESE 6.9 mph - 0.03 in Rain Light Rain
12:27 PM 39.0 °F 35.7 °F 37.0 °F 93% 30.05 in 1.8 mi ENE 4.6 mph - 0.02 in Rain Rain
12:53 PM 39.9 °F 36.7 °F 37.9 °F 93% 30.02 in 2.0 mi East 4.6 mph - 0.02 in Rain Light Rain
1:14 PM 39.9 °F - 39.0 °F 97% 30.02 in 1.5 mi Calm Calm - 0.00 in Rain Light Rain
1:31 PM 39.9 °F 37.8 °F 39.0 °F 97% 30.01 in 2.5 mi NE 3.5 mph - 0.00 in   Overcast
1:50 PM 39.2 °F - 39.2 °F 100% 30.00 in 1.5 mi Calm Calm - 0.01 in Rain Light Rain
1:53 PM 39.9 °F - 39.0 °F 97% 30.00 in 1.2 mi Calm Calm - 0.01 in Rain Rain
2:53 PM 39.9 °F 34.5 °F 39.0 °F 97% 30.04 in 1.5 mi NW 8.1 mph - 0.09 in Rain Rain
3:00 PM 39.9 °F 35.8 °F 37.9 °F 93% 30.03 in 2.0 mi NNW 5.8 mph - 0.00 in Rain Light Rain
3:16 PM 39.9 °F 37.8 °F 37.9 °F 93% 30.04 in 4.0 mi Variable 3.5 mph - 0.00 in Rain Light Rain
3:25 PM 39.9 °F 35.8 °F 37.9 °F 93% 30.02 in 2.5 mi NNE 5.8 mph - 0.00 in Rain Light Rain
3:32 PM 39.9 °F 36.7 °F 37.9 °F 93% 30.03 in 2.5 mi NNE 4.6 mph - 0.00 in Rain Light Rain
3:50 PM 39.2 °F 35.9 °F 39.2 °F 100% 30.02 in 1.8 mi East 4.6 mph - 0.01 in Rain Light Rain
3:53 PM 39.9 °F 35.8 °F 39.0 °F 97% 30.02 in 1.5 mi ENE 5.8 mph - 0.01 in Rain Light Rain
4:19 PM 39.9 °F 37.8 °F 39.0 °F 97% 30.01 in 1.0 mi ENE 3.5 mph - 0.00 in Rain Light Rain
4:29 PM 39.9 °F 37.8 °F 39.0 °F 97% 30.02 in 0.8 mi ENE 3.5 mph - 0.00 in Rain Light Rain
4:40 PM 39.9 °F 37.8 °F 39.0 °F 97% 30.01 in 1.0 mi ENE 3.5 mph - 0.00 in Rain Light Rain
4:53 PM 39.9 °F 37.8 °F 39.0 °F 97% 30.00 in 2.5 mi NE 3.5 mph - 0.00 in   Overcast
5:00 PM 39.9 °F 37.8 °F 39.0 °F 97% 30.01 in 4.0 mi ENE 3.5 mph - N/A   Overcast
5:25 PM 39.9 °F 37.8 °F 39.0 °F 97% 30.00 in 6.0 mi ENE 3.5 mph - N/A   Overcast
5:49 PM 41.0 °F - 39.2 °F 93% 30.01 in 6.0 mi Calm Calm - N/A   Overcast
5:53 PM 41.0 °F - 39.9 °F 96% 30.02 in 6.0 mi Calm Calm - N/A   Overcast
6:53 PM 41.0 °F 39.0 °F 39.0 °F 93% 30.01 in 8.0 mi North 3.5 mph - N/A   Overcast
7:53 PM 41.0 °F - 39.0 °F 93% 30.02 in 8.0 mi Calm Calm - N/A   Overcast
8:53 PM 41.0 °F - 39.0 °F 93% 30.03 in 8.0 mi Calm Calm - N/A   Overcast
9:15 PM 39.9 °F - 39.0 °F 97% 30.02 in 7.0 mi Calm Calm - N/A   Overcast
9:53 PM 39.9 °F - 37.9 °F 93% 30.04 in 4.0 mi Calm Calm - N/A   Mostly Cloudy
10:53 PM 39.9 °F - 39.0 °F 97% 30.05 in 3.0 mi Calm Calm - N/A   Overcast
11:17 PM 39.0 °F - 37.9 °F 96% 30.04 in 1.8 mi Calm Calm - N/A   Overcast
11:21 PM 39.0 °F - 37.9 °F 96% 30.04 in 0.8 mi Calm Calm - N/A   Overcast
11:31 PM 37.9 °F - 37.9 °F 100% 30.04 in 0.2 mi Calm Calm - N/A Fog Fog
11:46 PM 37.9 °F - 37.0 °F 97% 30.04 in 0.2 mi Calm Calm - N/A Fog Fog
11:53 PM 37.0 °F 34.5 °F 36.0 °F 96% 30.05 in 0.2 mi WSW 3.5 mph - N/A Fog Fog